Flag for France Weather past 2 weeks in Toulon, France

Now
48 °F

Clear.


Feels Like: 48 °F
Forecast: 55 / 66 °F
Wind: 1 mph from Northwest

Location: Hyeres Airport


UV Index: 3 (Moderate)

Visibility: N/A


Pressure: 29.74 "Hg

Humidity: 87%

Dew point: 45 °F

Location of ToulonLocation

Historic Weather in Toulon

°F

Toulon temperature yesterday

Maximum temperature yesterday: 64 °F (at 12:00 AM)
Minimum temperature yesterday: 52 °F (at 7:00 AM)
Average temperature yesterday: 59 °F

Past Weeks' High & Low Weather Summary

 TemperatureHumidityPressure
High72 °F (Apr 8, 3:00 PM)100% (Apr 11, 4:00 AM)30.18 "Hg (Apr 11, 4:00 AM)
Low43 °F (Apr 10, 7:00 AM)27% (Apr 18, 6:30 PM)29.50 "Hg (Apr 19, 5:30 AM)
Average58 °F70%29.97 "Hg
* Reported Apr 5 1:00 AM — Apr 20 1:30 AM, Toulon, Weather by CustomWeather, © 2014

Note: Actual official high and low records may vary slightly from our data, if they occured in-between our weather recording intervals... More about our weather records

Advertising

Historic Weather Conditions — Data for Previous 24 hours

 ConditionsComfort  
Time TempWeatherWind HumidityBarometerVisibility
1:30 AM
Apr 20
48 °FPassing clouds.3 mph87%29.74 "HgN/A
1:00 AM48 °FPassing clouds.5 mph87%29.74 "HgN/A
12:30 AM48 °FPassing clouds.5 mph87%29.74 "HgN/A
12:00 AM50 °FPassing clouds.5 mph82%29.74 "HgN/A
11:30 PM
Apr 19
52 °FClear.5 mph77%29.74 "HgN/A
11:00 PM55 °FPassing clouds.3 mph77%29.74 "HgN/A
10:30 PM55 °FClear.6 mph77%29.74 "HgN/A
10:00 PM55 °FClear.7 mph72%29.71 "HgN/A
9:30 PM55 °FClear.6 mph72%29.71 "HgN/A
9:00 PM55 °FClear.6 mph72%29.68 "HgN/A
8:30 PM55 °FClear.6 mph72%29.68 "HgN/A
8:00 PM57 °FClear.7 mph67%29.68 "HgN/A
7:30 PM59 °FClear.9 mph59%29.68 "HgN/A
7:00 PM59 °FClear.10 mph63%29.68 "HgN/A
6:30 PM59 °FClear.12 mph63%29.68 "HgN/A
6:00 PM61 °FClear.13 mph59%29.65 "HgN/A
5:30 PM61 °FClear.12 mph52%29.68 "HgN/A
5:00 PM61 °FClear.12 mph59%29.65 "HgN/A
4:30 PM63 °FClear.14 mph52%29.65 "HgN/A
4:00 PM63 °FClear.14 mph45%29.65 "HgN/A
3:30 PM63 °FClear.13 mph45%29.65 "HgN/A
3:00 PM63 °FClear.12 mph45%29.65 "HgN/A
2:30 PM63 °FClear.12 mph45%29.62 "HgN/A
2:00 PM61 °FClear.12 mph48%29.62 "HgN/A
1:30 PM63 °FClear.13 mph49%29.62 "HgN/A
1:00 PM63 °FClear.10 mph52%29.59 "HgN/A
12:30 PM63 °FClear.8 mph34%29.59 "HgN/A
12:00 PM64 °FClear.5 mph30%29.59 "HgN/A
11:30 AM64 °FClear.8 mph32%29.59 "HgN/A
11:00 AM63 °FClear.8 mph32%29.56 "HgN/A
10:30 AM61 °FClear.7 mph31%29.56 "HgN/A
10:00 AM61 °FClear.9 mph34%29.53 "HgN/A
9:30 AM59 °FClear.7 mph34%29.53 "HgN/A
9:00 AM57 °FClear.10 mph39%29.53 "HgN/A
8:30 AM55 °FClear.3 mph44%29.53 "HgN/A
8:00 AM54 °FClear.7 mph44%29.53 "HgN/A
7:30 AM52 °FClear.8 mph47%29.53 "HgN/A
7:00 AM52 °FClear.7 mph47%29.53 "HgN/A
6:30 AM54 °FClear.10 mph44%29.53 "HgN/A
6:00 AM54 °FClear.12 mph41%29.50 "HgN/A
5:30 AM54 °FClear.13 mph41%29.50 "HgN/A
5:00 AM54 °FClear.8 mph41%29.53 "HgN/A
4:30 AM55 °FClear.6 mph41%29.53 "HgN/A
4:00 AM55 °FClear.7 mph41%29.53 "HgN/A
3:30 AM57 °FClear.14 mph41%29.53 "HgN/A
3:00 AM59 °FClear.13 mph36%29.53 "HgN/A
2:30 AM59 °FClear.8 mph39%29.56 "HgN/A
2:00 AM59 °FClear.12 mph39%29.56 "HgN/A
Weather by CustomWeather, © 2014

See weather overview